Tracking 28790 objects as of 19-Apr-2024
HD Live streaming from Space Station
objects crossing your sky now

STARLINK-5196

Track STARLINK-5196 now!
10-day predictions
STARLINK-5196 is classified as:


NORAD ID: 55319
Int'l Code: 2023-010BC
Perigee: 577.4 km
Apogee: 581.0 km
Inclination: 70.0 °
Period: 96.1 minutes
Semi major axis: 6950 km
RCS: Unknown
Launch date: January 19, 2023
Source: United States (US)
Launch site: AIR FORCE WESTERN TEST RANGE (AFWTR)
Your satellite tracking list
Your tracking list is empty




NASA's NSSDC Master Catalog

Two Line Element Set (TLE):
1 55319U 23010BC  24109.86104305 -.00000251  00000-0 -13252-4 0  9999
2 55319  69.9992 303.7183 0002566 255.6578 104.4296 14.98334367 71317
Source of the keplerian elements: AFSPC